7 * 24
多渠道服务支持
STARLINK-36305(NORAD编号68189)是SpaceX星链星座中的一颗卫星,属于第二代星链网络组网卫星,部署于近地轨道,主要为全球提供高速低延迟互联网接入服务。作为星链批量发射的卫星之一,它承担着扩展星链网络覆盖范围、提升全球偏远地区网络连接能力的作用。星链卫星采用自主离轨设计,任务结束后会再入大气层烧毁,减少太空垃圾。目前该卫星正常运行,助力SpaceX完成全球卫星互联网布局的建设目标。
美国
(US)
| 数据来源 | 国际轨道数据 |
| 星历时间: | 2026-05-25T10:03:33+0800 7小时前 查看轨道信息 |
| 半长轴: | 6840.906km |
| 偏心率: | 0.0001139 |
| 轨道倾角: | 53.159° |
| 近地点辐角 | 65.995° |
| 升交点赤经 | 271.619° |
| 平近点角 | 294.117° |
| 近地点: | 461.989km |
| 远地点: | 463.549km |
| 周期: | 93.849分钟 |
| 每日圈数: | 15.343779 |